Location: Bukit Nyuki
(2.5885°N, 113.7476°E)
Time: 05:24:46
(UTC+00:00)

ARIANE 5 DEB (SYLDA) - Pass Details

Date: 18 May 2021
Orbit: 865 x 35956 km, 1.4° (Epoch: 22 June)

Event Time Altitude Azimuth Distance (km) Brightness Sun altitude
Rises 18:57:49 0° 270° (W) 14,030 8.6 -45.6°
Enters shadow 19:04:54 - 270° (W) 11,830 8.2 -44.1°
Exits shadow 19:34:30 49° 103° (ESE) 1,439 4.0 -37.7°
Drops below altitude 10° 19:37:41 10° 95° (E) 2,585 5.8 -36.9°
Sets 19:39:29 0° 94° (E) 3,428 6.6 -36.5°
